Total_Precipitation_Accumulation
0.00 0.00 0.00 0.00 0.00 0.00 0.01 0.03 0.05 0.08 0.14 0.14 0.16 0.19 0.19 0.17 0.31 0.71 0.49 0.22 0.16 0.03 0.01 0.01 0.01 0.02 0.03 0.04 0.06 0.06 0.07 0.07 0.07 0.06 0.05 0.05 0.06 0.07 0.07 0.06 0.07 0.10 0.12 0.12 0.10 0.09 0.08 0.06 0.04
0.00 0.00 0.00 0.00 0.00 0.00 0.01 0.02 0.05 0.07 0.10 0.10 0.13 0.15 0.14 0.16 0.15 0.14 0.14 0.09 0.09 0.03 0.01 0.01 0.01 0.02 0.02 0.03 0.04 0.06 0.07 0.06 0.06 0.05 0.05 0.05 0.05 0.06 0.07 0.07 0.09 0.14 0.16 0.14 0.10 0.07 0.05 0.03 0.02
0.00 0.00 0.00 0.00 0.00 0.00 0.02 0.04 0.06 0.06 0.08 0.10 0.14 0.27 0.29 0.20 0.14 0.10 0.06 0.06 0.06 0.02 0.00 0.01 0.02 0.02 0.02 0.02 0.02 0.04 0.05 0.05 0.06 0.05 0.04 0.05 0.05 0.06 0.08 0.12 0.15 0.16 0.17 0.17 0.14 0.10 0.06 0.03 0.02
0.00 0.00 0.00 0.00 0.00 0.00 0.02 0.05 0.06 0.05 0.05 0.07 0.12 0.31 0.43 0.19 0.13 0.09 0.05 0.05 0.06 0.03 0.01 0.01 0.02 0.02 0.02 0.02 0.02 0.04 0.05 0.05 0.05 0.05 0.05 0.06 0.06 0.07 0.10 0.18 0.24 0.22 0.20 0.22 0.22 0.17 0.11 0.05 0.03
0.00 0.00 0.00 0.00 0.00 0.00 0.01 0.03 0.06 0.04 0.03 0.03 0.07 0.23 0.41 0.24 0.11 0.08 0.07 0.06 0.05 0.04 0.01 0.01 0.03 0.04 0.03 0.02 0.03 0.04 0.06 0.08 0.09 0.09 0.08 0.08 0.08 0.10 0.15 0.23 0.25 0.24 0.23 0.24 0.21 0.14 0.08 0.06 0.06
0.00 0.00 0.00 0.00 0.00 0.01 0.00 0.01 0.04 0.04 0.03 0.04 0.07 0.19 0.39 0.31 0.20 0.13 0.12 0.11 0.06 0.05 0.02 0.02 0.04 0.05 0.05 0.05 0.06 0.07 0.08 0.10 0.11 0.12 0.11 0.08 0.08 0.10 0.15 0.20 0.23 0.24 0.21 0.17 0.13 0.10 0.09 0.10 0.10
0.00 0.00 0.00 0.00 0.00 0.01 0.01 0.02 0.03 0.04 0.05 0.05 0.09 0.19 0.40 0.38 0.28 0.22 0.20 0.18 0.12 0.11 0.10 0.08 0.08 0.07 0.09 0.12 0.14 0.14 0.12 0.12 0.12 0.11 0.09 0.07 0.08 0.11 0.14 0.17 0.22 0.23 0.15 0.11 0.10 0.08 0.07 0.07 0.07
0.00 0.00 0.00 0.00 0.00 0.01 0.02 0.03 0.04 0.06 0.09 0.07 0.09 0.21 0.53 0.58 0.38 0.35 0.32 0.33 0.30 0.26 0.27 0.27 0.20 0.14 0.12 0.13 0.17 0.18 0.18 0.17 0.14 0.10 0.07 0.08 0.11 0.13 0.15 0.13 0.14 0.14 0.09 0.06 0.04 0.03 0.02 0.02 0.02
0.00 0.00 0.00 0.00 0.00 0.01 0.02 0.04 0.05 0.05 0.07 0.07 0.08 0.15 0.45 0.55 0.42 0.37 0.38 0.39 0.47 0.56 0.55 0.47 0.38 0.25 0.21 0.18 0.18 0.20 0.20 0.19 0.16 0.14 0.11 0.13 0.17 0.19 0.20 0.14 0.13 0.09 0.05 0.04 0.02 0.02 0.02 0.02 0.02
0.00 0.00 0.00 0.00 0.00 0.01 0.01 0.02 0.04 0.05 0.05 0.07 0.11 0.14 0.29 0.39 0.39 0.40 0.42 0.45 0.50 0.79 0.74 0.52 0.48 0.44 0.37 0.26 0.24 0.25 0.22 0.19 0.18 0.21 0.18 0.22 0.33 0.37 0.29 0.25 0.15 0.10 0.08 0.06 0.04 0.04 0.04 0.03 0.04
0.00 0.00 0.00 0.00 0.00 0.00 0.00 0.01 0.02 0.04 0.07 0.08 0.11 0.21 0.27 0.35 0.41 0.51 0.55 0.56 0.60 0.64 0.58 0.54 0.58 0.54 0.52 0.52 0.51 0.48 0.45 0.42 0.34 0.39 0.36 0.38 0.38 0.33 0.34 0.31 0.24 0.19 0.15 0.14 0.14 0.09 0.07 0.07 0.08
0.00 0.00 0.00 0.00 0.00 0.00 0.00 0.00 0.01 0.03 0.05 0.08 0.13 0.27 0.40 0.49 0.62 0.70 0.75 0.80 0.92 0.89 0.78 0.67 0.61 0.62 0.64 0.66 0.74 0.79 0.74 0.67 0.59 0.50 0.41 0.47 0.54 0.54 0.46 0.46 0.43 0.42 0.37 0.34 0.28 0.23 0.16 0.15 0.14
0.00 0.00 0.00 0.00 0.00 0.00 0.00 0.00 0.00 0.02 0.03 0.05 0.09 0.22 0.35 0.49 0.65 0.94 0.97 1.08 1.28 1.34 1.18 0.97 0.94 0.82 0.82 0.89 0.90 0.80 0.83 0.83 0.90 0.80 0.63 0.68 0.67 0.67 0.73 0.71 0.72 0.66 0.66 0.61 0.50 0.39 0.33 0.30 0.26
0.00 0.00 0.00 0.00 0.00 0.00 0.00 0.00 0.01 0.02 0.02 0.03 0.08 0.15 0.25 0.37 0.55 0.84 1.09 1.28 1.56 1.66 1.51 1.31 1.19 1.16 1.13 1.19 1.20 1.09 1.00 1.02 1.05 1.08 0.99 1.03 1.00 0.98 1.01 1.06 1.09 0.96 0.88 0.89 0.79 0.60 0.53 0.48 0.41
0.00 0.00 0.00 0.00 0.00 0.00 0.00 0.01 0.01 0.02 0.02 0.03 0.06 0.13 0.24 0.41 0.57 0.87 1.26 1.53 1.87 1.89 1.72 1.69 1.54 1.64 1.65 1.72 1.69 1.69 1.63 1.59 1.48 1.40 1.43 1.43 1.36 1.33 1.28 1.41 1.50 1.33 1.25 1.23 1.11 0.97 0.79 0.75 0.69
0.00 0.00 0.00 0.00 0.00 0.00 0.00 0.02 0.05 0.04 0.02 0.04 0.09 0.15 0.28 0.46 0.69 0.99 1.34 1.52 1.81 1.80 1.81 1.86 1.71 1.74 1.91 1.90 1.82 1.84 2.00 2.03 1.95 1.85 1.85 1.72 1.68 1.70 1.76 1.70 1.66 1.61 1.56 1.52 1.53 1.35 1.11 1.03 1.06
0.00 0.00 0.00 0.00 0.00 0.00 0.01 0.05 0.06 0.04 0.03 0.06 0.12 0.17 0.29 0.44 0.58 0.87 1.33 1.56 1.69 1.72 1.60 1.69 1.90 1.84 1.96 1.99 1.95 2.03 2.23 2.34 2.38 2.33 2.23 2.12 2.09 2.07 2.15 2.23 2.09 1.93 1.83 1.78 1.63 1.56 1.40 1.33 1.29
0.00 0.00 0.00 0.00 0.00 0.00 0.02 0.06 0.07 0.05 0.06 0.11 0.14 0.17 0.27 0.43 0.65 0.90 1.21 1.56 1.63 1.69 1.72 1.73 1.92 1.92 2.05 2.16 2.07 2.14 2.21 2.30 2.44 2.58 2.68 2.79 2.83 2.78 2.70 2.57 2.42 2.25 2.15 2.07 1.91 1.78 1.62 1.47 1.32
0.00 0.00 0.00 0.00 0.01 0.02 0.04 0.07 0.12 0.12 0.12 0.19 0.24 0.32 0.44 0.48 0.66 0.99 1.22 1.59 1.93 1.85 1.89 1.83 1.84 2.04 2.12 2.24 2.34 2.57 2.56 2.55 2.79 3.11 3.28 3.48 3.56 3.39 3.31 3.15 2.90 2.70 2.48 2.30 2.03 1.84 1.67 1.46 1.25
0.00 0.00 0.01 0.02 0.02 0.03 0.06 0.12 0.20 0.21 0.21 0.30 0.43 0.53 0.71 0.84 0.88 1.09 1.38 1.69 1.93 1.95 1.95 2.01 2.15 2.23 2.36 2.68 3.10 3.49 3.76 3.92 4.02 4.19 4.22 4.13 4.02 3.92 3.82 3.65 3.36 3.04 2.76 2.50 2.20 1.86 1.65 1.43 1.23
0.00 0.00 0.02 0.04 0.07 0.09 0.13 0.23 0.30 0.31 0.30 0.38 0.56 0.65 0.77 0.93 1.05 1.03 1.12 1.33 1.63 1.86 2.03 2.11 2.40 2.72 3.02 3.48 4.04 4.43 4.78 5.02 4.94 4.74 4.58 4.36 4.17 3.99 3.69 3.48 3.36 3.08 2.67 2.37 2.11 1.80 1.59 1.39 1.17
0.01 0.00 0.02 0.03 0.07 0.17 0.17 0.34 0.44 0.41 0.38 0.38 0.46 0.50 0.59 0.60 0.74 0.90 0.99 1.14 1.40 1.63 1.91 2.17 2.50 3.01 3.69 4.35 4.91 5.31 5.49 5.48 5.37 5.11 4.75 4.35 4.03 3.74 3.41 3.12 2.86 2.61 2.30 2.02 1.79 1.54 1.34 1.19 1.03
0.00 0.00 0.01 0.04 0.06 0.13 0.16 0.36 0.57 0.54 0.49 0.49 0.51 0.47 0.47 0.50 0.55 0.70 0.81 0.98 1.20 1.41 1.72 2.09 2.56 3.20 3.83 4.46 4.99 5.39 5.51 5.40 5.15 4.74 4.26 3.77 3.32 3.00 2.71 2.41 2.14 1.91 1.71 1.50 1.28 1.14 1.09 1.01 0.90
0.00 0.00 0.02 0.05 0.07 0.17 0.16 0.30 0.63 0.79 0.74 0.71 0.67 0.63 0.60 0.61 0.64 0.65 0.67 0.78 0.98 1.24 1.57 1.94 2.35 2.89 3.39 3.79 4.28 4.56 4.69 4.63 4.32 3.85 3.30 2.85 2.54 2.26 2.03 1.78 1.57 1.38 1.19 1.04 0.93 0.85 0.83 0.85 0.79
0.00 0.01 0.06 0.11 0.13 0.19 0.17 0.35 0.74 0.98 0.93 0.90 0.86 0.83 0.73 0.72 0.70 0.66 0.65 0.69 0.84 1.08 1.40 1.65 1.91 2.28 2.60 2.94 3.30 3.50 3.49 3.34 3.12 2.83 2.52 2.19 1.88 1.62 1.41 1.21 1.06 0.94 0.84 0.77 0.69 0.64 0.62 0.62 0.61
0.00 0.01 0.07 0.14 0.16 0.23 0.34 0.61 0.89 0.96 0.89 0.84 0.81 0.74 0.70 0.65 0.65 0.69 0.73 0.77 0.86 0.97 1.16 1.36 1.49 1.67 1.79 1.91 2.08 2.14 2.12 2.03 1.99 1.84 1.63 1.41 1.18 0.95 0.83 0.74 0.65 0.60 0.58 0.54 0.50 0.46 0.44 0.42 0.39
0.01 0.02 0.03 0.05 0.09 0.23 0.52 0.87 1.08 1.04 0.95 0.81 0.69 0.57 0.56 0.51 0.49 0.56 0.62 0.73 0.78 0.81 0.85 0.88 0.91 0.96 0.98 1.00 1.09 1.15 1.16 1.14 1.11 1.02 0.90 0.80 0.72 0.64 0.56 0.51 0.46 0.43 0.42 0.39 0.34 0.30 0.27 0.27 0.27
0.02 0.02 0.03 0.06 0.17 0.30 0.51 0.83 1.17 1.37 1.29 1.14 0.88 0.64 0.55 0.49 0.49 0.52 0.56 0.61 0.64 0.61 0.59 0.57 0.61 0.61 0.56 0.54 0.55 0.59 0.63 0.62 0.59 0.57 0.55 0.51 0.47 0.42 0.36 0.31 0.27 0.25 0.23 0.21 0.22 0.20 0.18 0.17 0.18
0.02 0.03 0.04 0.08 0.14 0.29 0.58 0.96 1.13 1.41 1.40 1.20 0.96 0.75 0.66 0.64 0.63 0.62 0.62 0.56 0.55 0.55 0.51 0.49 0.50 0.47 0.44 0.42 0.42 0.39 0.37 0.35 0.33 0.32 0.32 0.29 0.27 0.24 0.22 0.20 0.17 0.16 0.15 0.15 0.16 0.17 0.17 0.16 0.16
0.05 0.05 0.05 0.10 0.12 0.16 0.49 1.13 1.35 1.53 1.50 1.31 1.21 1.09 0.97 0.88 0.82 0.77 0.70 0.59 0.53 0.50 0.48 0.45 0.43 0.39 0.38 0.34 0.30 0.28 0.25 0.24 0.22 0.21 0.20 0.18 0.17 0.16 0.16 0.16 0.15 0.13 0.13 0.14 0.14 0.14 0.14 0.14 0.14